Weather in Polovinnoe

Russia / Kurgan Oblast     54°47′27″N   65°58′40″E
temp.,
°C
wind,
m/s
gust,
m/s
humid.,
%
clouds,
%
prec.,
mm/h
press.,
hPa
HPBL,
m
20 april, tue
tue2023:00−2ne22475 0.0 103313
02:00−3ne22520 0.0 103326
05:00−3ene22530 0.0 103432
08:00−1ne22390 0.0 1034485
11:00+1n33295 0.0 10341304
14:00+3nw33275 0.0 10321425
17:00+5wnw45280 0.0 10311510
20:00+3w34430 0.0 103042
21 april, wed
wed2123:00+1wsw47512 0.0 1029106
02:000w411545 0.0 1029212
05:000w47620 0.0 1029130
08:00+4nw47562 0.0 1030293
11:00+9nnw57465 0.0 10301171
14:00+11n564172 0.0 10301874
17:00+11nne554290 0.0 10311724
20:00+7ene34625 0.0 103380
22 april, thu
thu2223:00+5ene22665 0.0 103510
02:00+4ese22705 0.0 103619
05:00+2sse22785 0.0 103721
08:00+6se34665 0.0 1038234
11:00+10se44495 0.0 1038938
14:00+12sse444110 0.0 10381545
17:00+13sse443959 0.0 10381646
20:00+9se4851100 0.0 1038157
23 april, fri
fri2323:00+7se5115487 0.0 1038251
02:00+5se41058100 0.0 1038181
05:00+4sse49685 0.0 1038168
08:00+7s69535 0.0 1038345
11:00+12s6737100 0.0 10371054
14:00+13s6732100 0.0 10361614
17:00+13s5732100 0.0 10341560
20:00+10sse364399 0.0 1034103
24 april, sat
sat2423:00+8sse485098 0.0 1033127
02:00+6sse41154100 0.0 1032213
05:00+5sse41056100 0.0 1032211
08:00+7sse5948100 0.0 1031325
11:00+11sse6836100 0.0 1029724
14:00+13s7830100 0.0 10271585
17:00+13sse6932100 0.0 10261838
20:00+10se4942100 0.0 1025238